Weather History for Kansas City, MO

Change the Weather History Date:

Wednesday, May 22, 2013

  Actual Average Record
Temperature  
Mean Temperature 63 °F -  
Max Temperature 70 °F 75 °F 89 °F (2000)
Min Temperature 57 °F 56 °F 48 °F (2001)
Degree Days  
Heating Degree Days 2    
Growing Degree Days 13 (Base 50)    
Moisture  
Dew Point 49 °F    
Average Humidity 61    
Maximum Humidity 74    
Minimum Humidity 51    
Precipitation  
Precipitation 0.00 in - - ()
Sea Level Pressure  
Sea Level Pressure 29.81 in    
Wind  
Wind Speed 7 mph (West)    
Max Wind Speed 15 mph    
Max Gust Speed 21 mph    
Visibility 10 miles    
Events      
Averages and records for this station are not official NWS values.
T = Trace of Precipitation, MM = Missing Value Source: NWS Daily Summary

Daily Weather History Graph

Daily Weather History Graph

Search for Another Location

Airport:

Trip Planner

Search our weather history database for the weather conditions in past years. The results will help you decide how hot, cold, wet, or windy it might be!

Date:

Astronomy

May. 22, 2013 Rise Set
Actual Time 5:59 AM CDT 8:31 PM CDT
Civil Twilight 5:28 AM CDT 9:01 PM CDT
Nautical Twilight 4:50 AM CDT 9:40 PM CDT
Astronomical Twilight 4:08 AM CDT 10:23 PM CDT
Moon 5:55 PM CDT (5/22) 4:02 AM CDT (5/22)
Length of Visible Light 15h 33m
Length of Day
14h 31m
Waxing Gibbous, 91% of the Moon is Illuminated
May 22
Waxing Gibbous
May 24
Full
May 31
Last Quarter
Jun 8
New
Jun 16
First Quarter

Hourly Weather History & Observations

Time (CDT) Temp. Dew Point Humidity Pressure Visibility Wind Dir Wind Speed Gust Speed Precip Events Conditions
12:54 AM 64.0 °F 48.0 °F 56% 29.73 in 10.0 mi Calm Calm - N/A   Mostly Cloudy
1:54 AM 63.0 °F 48.9 °F 60% 29.73 in 10.0 mi West 4.6 mph - N/A   Mostly Cloudy
2:54 AM 61.0 °F 48.9 °F 64% 29.73 in 10.0 mi West 5.8 mph - N/A   Mostly Cloudy
3:54 AM 61.0 °F 48.9 °F 64% 29.72 in 10.0 mi WNW 5.8 mph - N/A   Mostly Cloudy
4:54 AM 59.0 °F 48.9 °F 69% 29.72 in 10.0 mi WNW 6.9 mph - N/A   Scattered Clouds
5:54 AM 57.0 °F 48.9 °F 74% 29.74 in 10.0 mi WSW 5.8 mph - N/A   Clear
6:54 AM 57.9 °F 48.9 °F 72% 29.75 in 10.0 mi West 5.8 mph - N/A   Clear
7:54 AM 57.0 °F 48.0 °F 72% 29.77 in 10.0 mi WNW 10.4 mph 18.4 mph N/A   Clear
8:54 AM 60.1 °F 48.0 °F 64% 29.78 in 10.0 mi WNW 10.4 mph 18.4 mph N/A   Partly Cloudy
9:17 AM 59.0 °F 48.2 °F 67% 29.80 in 10.0 mi West 12.7 mph 19.6 mph N/A   Mostly Cloudy
9:24 AM 60.8 °F 48.2 °F 63% 29.80 in 10.0 mi West 15.0 mph 20.7 mph N/A   Scattered Clouds
9:34 AM 60.8 °F 48.2 °F 63% 29.80 in 10.0 mi WNW 10.4 mph - N/A   Mostly Cloudy
9:54 AM 60.1 °F 48.0 °F 64% 29.80 in 10.0 mi West 11.5 mph 18.4 mph N/A   Overcast
10:54 AM 62.1 °F 48.0 °F 60% 29.82 in 10.0 mi West 15.0 mph - N/A   Mostly Cloudy
11:02 AM 62.6 °F 46.4 °F 55% 29.83 in 10.0 mi WNW 11.5 mph 18.4 mph N/A   Overcast
11:54 AM 62.1 °F 48.0 °F 60% 29.83 in 10.0 mi West 12.7 mph - N/A   Overcast
12:54 PM 64.0 °F 48.9 °F 58% 29.83 in 10.0 mi WNW 9.2 mph 16.1 mph N/A   Overcast
1:54 PM 64.9 °F 50.0 °F 58% 29.83 in 10.0 mi West 10.4 mph 17.3 mph N/A   Overcast
2:54 PM 66.9 °F 50.0 °F 54% 29.83 in 10.0 mi West 12.7 mph 19.6 mph N/A   Overcast
3:54 PM 66.9 °F 50.0 °F 54% 29.83 in 10.0 mi West 11.5 mph 17.3 mph N/A   Overcast
4:54 PM 69.1 °F 50.0 °F 51% 29.83 in 10.0 mi WSW 13.8 mph 19.6 mph N/A   Overcast
5:54 PM 68.0 °F 50.0 °F 52% 29.83 in 10.0 mi West 10.4 mph - N/A   Overcast
6:54 PM 66.9 °F 50.0 °F 54% 29.83 in 10.0 mi WSW 6.9 mph - N/A   Overcast
7:54 PM 66.9 °F 51.1 °F 57% 29.86 in 10.0 mi WNW 6.9 mph - N/A   Overcast
8:54 PM 66.0 °F 51.1 °F 59% 29.88 in 10.0 mi NW 6.9 mph - N/A   Overcast
9:54 PM 64.9 °F 48.0 °F 54% 29.91 in 10.0 mi NW 8.1 mph - N/A   Overcast
10:54 PM 64.0 °F 48.9 °F 58% 29.93 in 10.0 mi NW 6.9 mph - N/A   Overcast
11:54 PM 62.1 °F 48.9 °F 62% 29.94 in 10.0 mi WNW 3.5 mph - N/A   Mostly Cloudy